Latest Flight | Flight Log | Data Trends | Login | Join FlightData.com!
Flight Info - N595MW (Cirrus SR22 #4359)
Date
Origin
Dest
Depart
Arrive
Hobbs
Flight Time
Ground Time
Flight Distance
Taxi Distance
Fuel
Fuel/hr
Fuel/nm
Altitude
Gnd Speed
Sat, Nov 20, 2021 KCON KCON 17:41 17:44 0.05 hrs 0 hrs (0:00) 0.05 hrs (0:03) 0 nm 0.11 nm 0.11 gal 2.45 gal/hr 0 gal/nm 0 msl 0 kts
Flight Track | Google Earth Export: 3D View, Cockpit View
NEXRAD Archive
Zoom In: Double click. Zoom Out: Double right-click.
Scroll Map: Left-click and drag. Show on graph: Click on track.
Graph | Increase Sample Rate (1 sec) |
Zoom In: Click and Drag to the right and down. Zoom Out: Click and Drag to the left.
Scroll Chart (while zoomed in): Hold right mouse-button.
Autopilot / COM
AP/FD:
Mode:
COMs:
NAVs:
AP:
FD:
HSI Sel CRS Sel ActvWpt Dist
-NA-
More Flights - N595MW
Wed, Nov 3, 2021 KCON KCON 21:13 22:01 0.74 hrs 0.29 hrs 33.51 nm 5.86 gal 7.90 gal/hr 0.17 gal/nm 3038 msl 110 kts
Sat, Nov 6, 2021 KCON KNHZ 14:34 15:38 1 hrs 0.73 hrs 123.96 nm 14.34 gal 14.35 gal/hr 0.12 gal/nm 5648 msl 160 kts
Cruise 15:04:44 15:06:15   1m 31s 4.14 nm 0.43 gal 17 gal/h 0.1 gal/nm 5499 feet 163 kts    
Cruise 15:21:48 15:26:39   4m 51s 13.79 nm 1.3 gal 16 gal/h 0.09 gal/nm 5496 feet 183 kts    
Sun, Nov 7, 2021 KCON KCON 16:10 19:06 2.75 hrs 2.27 hrs 377.72 nm 43.34 gal 15.78 gal/hr 0.11 gal/nm 9531 msl 157 kts
Cruise 16:47:58 16:50:31   2m 33s 7.23 nm 0.77 gal 18 gal/h 0.11 gal/nm 8001 feet 161 kts    
Cruise 16:56:03 17:35:01   38m 58s 110.45 nm 11.7 gal 18 gal/h 0.11 gal/nm 8000 feet 156 kts    
Cruise 18:17:46 18:31:15   13m 29s 38.25 nm 4.28 gal 19 gal/h 0.11 gal/nm 9501 feet 184 kts    
Cruise 18:36:26 18:43:40   7m 14s 20.78 nm 2.18 gal 18 gal/h 0.1 gal/nm 9501 feet 182 kts    
Cruise 18:48:47 18:48:59   12s 0.64 nm 0.07 gal 18 gal/h 0.11 gal/nm 9374 feet 193 kts    
Sun, Nov 7, 2021 KCON KCON 19:16 19:19 0.04 hrs 0 hrs 0.00 nm 0.11 gal 2.73 gal/hr 0.00 gal/nm 0 msl 0 kts
Sat, Nov 13, 2021 KCON KCON 16:23 18:49 2.27 hrs 1.46 hrs 205.15 nm 27.03 gal 11.93 gal/hr 0.13 gal/nm 7011 msl 131 kts
Cruise 18:21:12 18:30:46   9m 34s 26.51 nm 2.72 gal 17 gal/h 0.1 gal/nm 4498 feet 164 kts    
Sat, Nov 20, 2021 KCON KCON 15:17 17:30 2.09 hrs 1.59 hrs 233.90 nm 27.54 gal 13.17 gal/hr 0.12 gal/nm 6087 msl 137 kts
Cruise 15:56:56 15:59:56   3m 00s 7.89 nm 0.7 gal 14 gal/h 0.09 gal/nm 5999 feet 147 kts    
Cruise 16:26:10 16:31:01   4m 51s 9.81 nm 1.05 gal 13 gal/h 0.11 gal/nm 4001 feet 122 kts    
Cruise 16:42:14 16:51:50   9m 36s 26.93 nm 2.89 gal 18 gal/h 0.11 gal/nm 5500 feet 173 kts    
Cruise 17:17:08 17:22:47   5m 39s 13.6 nm 1.32 gal 14 gal/h 0.1 gal/nm 4000 feet 143 kts    
Sat, Nov 20, 2021 KCON KCON 17:41 17:44 0.05 hrs 0 hrs 0.00 nm 0.11 gal 2.45 gal/hr 0.00 gal/nm 0 msl 0 kts
Fri, Feb 10, 2017 KCPK KHPN 12:27 14:41 2.1 hrs 1.84 hrs 301.48 nm 31.16 gal 14.87 gal/hr 0.10 gal/nm 7507 msl 155 kts
Cruise 12:51:08 14:00:55   1h 09m 188.46 nm 17.45 gal 15 gal/h 0.09 gal/nm 7499 feet 158 kts    
Thu, Sep 7, 2017 KCVG KTUL 11:35 15:41 3.93 hrs 3.53 hrs 565.68 nm 55.85 gal 14.22 gal/hr 0.10 gal/nm 10151 msl 154 kts
Cruise 12:03:20 12:43:20   40m 00s 108.05 nm 10 gal 15 gal/h 0.09 gal/nm 6001 feet 154 kts    
Cruise 12:51:13 13:57:57   1h 06m 180.23 nm 16.69 gal 15 gal/h 0.09 gal/nm 8000 feet 152 kts    
Cruise 14:07:04 14:58:04   51m 00s 136.89 nm 11.05 gal 13 gal/h 0.08 gal/nm 10000 feet 158 kts    
Cruise 15:03:16 15:18:56   15m 40s 42.08 nm 3.4 gal 13 gal/h 0.08 gal/nm 9998 feet 164 kts    
Sun, Sep 10, 2017 KDEN KSTL 03:06 07:39 4.32 hrs 4.01 hrs 673.32 nm 60.24 gal 13.95 gal/hr 0.09 gal/nm 9064 msl 160 kts
Cruise 03:40:28 07:21:25   3h 40m 592.93 nm 51.56 gal 14 gal/h 0.09 gal/nm 9000 feet 161 kts    
Wed, Jun 15, 2016 KDLH KDLH 08:49 08:54 0.07 hrs 0 hrs 0.00 nm 0.41 gal 5.74 gal/hr 0.00 gal/nm 0 msl 0 kts
Wed, Jun 15, 2016 KDLH KDLH 12:35 13:41 1.03 hrs 0.64 hrs 99.35 nm 14.64 gal 14.16 gal/hr 0.15 gal/nm 5053 msl 147 kts
Cruise 13:23:37 13:25:42   2m 05s 5.74 nm 0.74 gal 21 gal/h 0.13 gal/nm 4990 feet 159 kts    
Wed, Jun 15, 2016 KDLH KDTW 14:19 17:39 3.15 hrs 2.82 hrs 521.98 nm 66.83 gal 21.20 gal/hr 0.13 gal/nm 9120 msl 176 kts
Cruise 14:52:31 16:41:48   1h 49m 307.86 nm 40.08 gal 22 gal/h 0.13 gal/nm 9000 feet 178 kts    
Cruise 16:51:42 17:09:15   17m 33s 49.77 nm 6.15 gal 21 gal/h 0.12 gal/nm 6998 feet 184 kts    
Cruise 17:17:55 17:22:10   4m 15s 12.16 nm 1.64 gal 23 gal/h 0.13 gal/nm 4993 feet 183 kts    
Complete Flight Log (1236)
FlightData.com is sponsored by AEROCOR